TimeSAST,TemperatureF,Dew PointF,Humidity,Sea Level PressureIn,VisibilityMPH,Wind Direction,Wind SpeedMPH,Gust SpeedMPH,PrecipitationIn,Events,Conditions,WindDirDegrees,DateUTC
12:00 AM,75.2,24.8,15,29.95,-9999.0,ENE,3.5,-,N/A,,Unknown,60,2013-11-28 22:00:00
1:00 AM,73.4,24.8,16,29.95,-9999.0,ESE,4.6,-,N/A,,Clear,110,2013-11-28 23:00:00
2:00 AM,73,22,7,,25,East,4.6,,,,,100,2013-11-29 00:00:00
2:00 AM,71.6,23.0,16,29.92,-9999.0,East,4.6,-,N/A,,Clear,100,2013-11-29 00:00:00
3:00 AM,71.6,26.6,19,29.92,-9999.0,ESE,5.8,-,N/A,,Clear,120,2013-11-29 01:00:00
4:00 AM,69.8,26.6,20,29.89,-9999.0,East,3.5,-,N/A,,Clear,90,2013-11-29 02:00:00
5:00 AM,68,27,12,,25,ENE,4.6,,,,Clear,60,2013-11-29 03:00:00
5:00 AM,68.0,28.4,23,29.89,-9999.0,ENE,4.6,-,N/A,,Clear,60,2013-11-29 03:00:00
6:00 AM,66.2,28.4,24,29.92,-9999.0,ENE,3.5,-,N/A,,Clear,70,2013-11-29 04:00:00
7:00 AM,71.6,32.0,23,29.92,-9999.0,East,3.5,-,N/A,,Clear,80,2013-11-29 05:00:00
7:22 AM,75.2,32.0,21,29.92,-9999.0,East,3.5,-,N/A,,Clear,90,2013-11-29 05:22:00
7:45 AM,78.8,35.6,21,29.92,-9999.0,East,5.8,-,N/A,,Clear,80,2013-11-29 05:45:00
8:00 AM,79,36,12,,25,ENE,9.2,,,,Clear,70,2013-11-29 06:00:00
8:00 AM,78.8,35.6,21,29.95,-9999.0,ENE,8.1,-,N/A,,Clear,70,2013-11-29 06:00:00
9:00 AM,82.4,35.6,19,29.92,-9999.0,ENE,6.9,-,N/A,,Clear,70,2013-11-29 07:00:00
9:42 AM,87.8,32.0,14,29.92,-9999.0,North,5.8,-,N/A,,Clear,10,2013-11-29 07:42:00
10:00 AM,87.8,32.0,14,29.92,-9999.0,North,4.6,-,N/A,,Clear,10,2013-11-29 08:00:00
11:00 AM,92,26,4,,25,West,4.6,,,,Clear,280,2013-11-29 09:00:00
11:00 AM,91.4,26.6,10,29.92,-9999.0,West,3.5,-,N/A,,Clear,280,2013-11-29 09:00:00
12:00 PM,93.2,26.6,9,29.89,-9999.0,WNW,2.3,-,N/A,,Clear,290,2013-11-29 10:00:00
1:00 PM,98.6,26.6,8,29.86,-9999.0,WNW,10.4,21.9,N/A,,Clear,300,2013-11-29 11:00:00
2:00 PM,98,21,4,,25,NW,10.4,,,,Clear,310,2013-11-29 12:00:00
2:00 PM,96.8,21.2,7,29.80,-9999.0,NW,9.2,-,N/A,,Clear,310,2013-11-29 12:00:00
3:00 PM,98.6,17.6,5,29.80,-9999.0,West,10.4,21.9,N/A,,Clear,260,2013-11-29 13:00:00
4:00 PM,98.6,17.6,5,29.77,-9999.0,WSW,15.0,-,N/A,,Clear,250,2013-11-29 14:00:00
5:00 PM,98,21,4,,25,SW,10.4,,,,Clear,230,2013-11-29 15:00:00
5:00 PM,96.8,21.2,7,29.77,-9999.0,SW,9.2,-,N/A,,Clear,230,2013-11-29 15:00:00
6:00 PM,95.0,15.8,6,29.77,-9999.0,WSW,13.8,-,N/A,,Clear,240,2013-11-29 16:00:00
7:00 PM,93.2,14.0,5,29.77,-9999.0,SW,12.7,-,N/A,,Clear,230,2013-11-29 17:00:00
8:00 PM,88,13,4,,25,SW,8.1,,,,Scattered Clouds,220,2013-11-29 18:00:00
8:00 PM,86.0,14.0,7,29.77,-9999.0,SW,6.9,-,N/A,,Clear,220,2013-11-29 18:00:00
9:00 PM,84.2,17.6,8,29.80,-9999.0,WSW,6.9,-,N/A,,Unknown,240,2013-11-29 19:00:00
10:00 PM,78.8,14.0,9,29.83,-9999.0,West,5.8,-,N/A,,Unknown,260,2013-11-29 20:00:00
11:00 PM,80,38,13,,,SSW,16.1,,,,,210,2013-11-29 21:00:00
11:00 PM,78.8,37.4,23,29.86,-9999.0,SSW,16.1,-,N/A,,Unknown,210,2013-11-29 21:00:00